Location: Pella
(41.4080°N, 92.9160°W)
Time: 04:03:05
(UTC-06:00)

Daily predictions for brighter satellites

Satellite Brightness Start Highest point End
(mag) Time Altitude Azimuth Time Altitude Azimuth Time Altitude Azimuth
Cosmos 2237 Rocket 4.0 04:22:48 23° SE 04:22:48 23° SE 04:24:53 10° SSE
SL-16 R/B 3.6 04:22:48 33° NE 04:23:05 34° ENE 04:28:11 10° ESE
Cosmos 2297 Rocket 3.2 04:33:23 41° NE 04:33:23 41° NE 04:37:05 10° NNE
USA 234 4.5 04:35:57 10° ENE 04:41:31 31° NNE 04:43:00 28° N
Cosmos 2227 Rocket 3.5 04:46:53 31° NNE 04:46:53 31° NNE 04:49:44 10° NNE
Tsikada Rocket 3.9 05:04:34 31° NNW 05:07:49 81° W 05:14:07 10° S
Cosmos 2082 4.4 05:14:49 39° NNW 05:14:49 39° NNW 05:18:45 10° NNE
Cosmos 2333 Rocket 4.2 05:21:27 14° SSW 05:21:27 14° SSW 05:22:18 10° SSW
SeaSat 1 4.2 05:20:39 10° N 05:22:19 19° N 05:22:19 19° N
SKYMED 2 3.5 05:22:42 10° SSE 05:27:02 85° ENE 05:28:08 50° N
Cosmos 968 Rocket 3.5 05:22:10 10° SSW 05:27:25 80° ESE 05:32:42 10° NNE
Cosmos 1725 Rocket 4.1 05:26:40 10° SSW 05:32:39 48° WNW 05:38:44 10° N
NOAA 6 3.9 05:29:15 10° N 05:34:25 69° WNW 05:39:33 10° SSW
SL-24 R/B 4.4 05:29:43 10° N 05:34:29 84° WNW 05:40:11 10° SSW
USA 229 DEB 3.9 05:38:23 34° WNW 05:41:20 55° WSW 05:48:21 10° SSE
USA 229 3.9 05:38:26 34° WNW 05:41:26 55° WSW 05:48:27 10° SSE
Cosmos 1328 3.6 05:40:35 46° NNW 05:41:41 81° W 05:45:40 10° S
Cosmos 304 Rocket 3.7 05:43:29 41° NW 05:44:55 61° WSW 05:49:37 10° S
ISS -3.5 05:48:48 77° SSW 05:48:48 77° SSW 05:52:00 10° SE
Cosmos 2221 3.3 05:44:47 10° S 05:49:00 54° E 05:53:14 10° NNE
OAO 2 Rocket 4.2 05:48:32 27° SW 05:50:24 38° S 05:54:56 10° ESE
CSL-04 Rocket 3.8 05:48:28 10° NNE 05:53:47 72° ESE 05:59:02 10° S
NOSS 3-1 (A) 4.3 05:48:20 14° NNW 05:55:10 70° NE 06:03:31 10° SE
Cosmos 2227 4.4 05:50:15 10° SSW 05:55:50 74° ESE 06:01:28 10° NNE
Genesis I 3.8 05:53:48 23° NNW 05:56:03 53° NE 05:59:52 10° SE
Cosmos 2058 2.9 05:52:30 10° N 05:56:39 83° E 06:00:47 10° S
Aureole 2 Rocket 4.2 06:00:01 23° SW 06:00:01 23° SW 06:02:20 10° SSW
Cosmos 1777 Rocket 4.0 05:55:54 10° SSW 06:01:06 84° ESE 06:06:21 10° NNE
Cosmos 2237 Rocket 4.0 06:04:42 14° WSW 06:04:42 14° WSW 06:06:00 10° SW
ATLAS 2AS CENTAUR R/B 4.4 05:56:20 10° NNW 06:03:28 32° NE 06:10:17 10° E
SL-8 R/B 4.1 06:03:57 26° NW 06:06:30 54° NNE 06:11:13 10° E
SL-16 R/B 2.8 06:04:45 25° WNW 06:07:11 36° WSW 06:12:17 10° S
TELKOM 3 2.9 06:09:30 49° WSW 06:10:03 82° NNW 06:12:16 10° ENE
Cosmos 1703 3.6 06:07:01 10° N 06:10:55 68° E 06:14:50 10° SSE
PSLV R/B 3.9 06:11:31 21° SW 06:13:32 52° SSE 06:16:49 10° E
Cosmos 1842 Rocket 4.3 06:10:44 10° SW 06:14:29 28° WNW 06:18:17 10° NNW
COSMO-SKYMED 1 3.4 06:11:27 10° SSW 06:15:10 28° W 06:16:41 23° WNW
Cosmos 2297 Rocket 3.3 06:15:15 21° WNW 06:16:00 21° NW 06:20:15 10° N
IDEFIX/ARIANE 42P 3.2 06:11:26 10° NNE 06:16:40 60° E 06:21:51 10° S
Helios 1B rocket 3.9 06:14:07 10° SE 06:17:54 37° ENE 06:21:42 10° N
Cosmos 2151 3.4 06:16:07 12° NNW 06:19:42 38° W 06:23:38 10° SSW
ERBS 2.3 06:18:03 26° NW 06:19:50 70° SW 06:23:13 10° SE
Cosmos 1356 Rocket 3.5 06:17:00 10° N 06:21:06 80° E 06:25:15 10° SSE
Meteor 1-4 Rocket 4.1 06:22:58 19° NW 06:22:58 19° NW 06:24:53 10° NNW
USA 234 3.4 06:17:20 10° ESE 06:23:52 74° NE 06:30:21 10° NW
Cosmos 1805 Rocket 3.5 06:19:28 10° N 06:23:55 83° W 06:28:17 10° S
Cosmos 1340 Rocket 3.0 06:20:15 10° NNW 06:24:02 46° W 06:27:49 10° SSW
Meteor 1-11 4.5 06:20:09 10° NNW 06:25:43 49° W 06:31:16 10° SSW
Cosmos 1271 Rocket 3.2 06:23:06 10° SW 06:26:39 35° WNW 06:30:10 10° N
Meteor 1-28 Rocket 4.2 06:25:19 10° SSW 06:28:31 26° W 06:30:52 15° NW
Cosmos 2227 Rocket 3.8 06:28:45 13° NW 06:29:05 14° NW 06:31:50 10° NNW
BREEZE-M DEB (TANK) 3.8 06:31:02 14° NW 06:32:41 20° N 06:34:27 10° ENE
SL-14 R/B 4.4 06:31:11 12° NW 06:34:07 25° W 06:37:26 10° SW
Cosmos 923 Rocket 4.0 06:29:08 10° NNW 06:34:22 76° WSW 06:39:36 10° SSE
NOSS 3-1 (C) 4.2 06:28:46 10° NW 06:36:16 59° WSW 06:44:25 10° SSE
Ariane Rocket 3.5 06:32:07 10° N 06:36:48 38° WNW 06:41:28 10° SW
Cosmos 1484 Rocket 4.3 06:36:04 10° NNE 06:39:55 42° E 06:43:43 10° S
SJ-12 3.8 06:36:12 10° N 06:40:17 68° WNW 06:44:19 10° SSW
Cosmos 292 Rocket 3.7 06:35:51 10° NNW 06:40:38 74° WSW 06:45:25 10° SSE
Cosmos 2034 Rocket 4.0 06:35:19 10° SSW 06:41:27 67° W 06:47:41 10° N
Cosmos 1626 2.1 06:38:28 10° NNW 06:42:11 61° W 06:45:51 10° S
Cosmos 1680 Rocket 3.5 06:37:56 10° NNW 06:43:16 83° WSW 06:48:35 10° SSE
IRS-1A Rocket 4.4 06:38:50 10° N 06:44:41 64° WNW 06:50:25 10° SSW
Sich 1 3.0 06:44:40 10° NNW 06:49:01 68° W 06:53:17 10° S
Nadezhda 4 Rocket 4.0 06:43:03 10° N 06:49:25 82° W 06:55:41 10° S
Cosmos 1943 3.3 06:44:33 10° NNW 06:50:18 86° ENE 06:55:59 10° SSE
SMAP 3.0 06:45:46 10° N 06:50:25 74° WNW 06:55:03 10° SSW
Cosmos 1633 Rocket 3.0 06:46:57 10° NNW 06:51:19 74° W 06:55:37 10° S
Cosmos 389 Rocket 2.5 06:50:01 10° SSW 06:53:40 76° W 06:57:21 10° N
CZ-2C R/B 2.3 06:50:03 10° N 06:54:34 57° WNW 06:59:02 10° SSW
Cosmos 1328 Rocket 3.7 06:50:48 10° S 06:55:06 79° E 06:59:29 10° N
Iridium 4 Rocket 4.3 06:51:41 10° N 06:55:49 47° E 07:00:11 10° SSE
CZ-4 R/B 1.7 06:52:36 10° N 06:56:28 44° WNW 07:00:22 10° SW
Tiangong 2 3.0 06:55:03 10° SW 06:57:52 31° SSE 07:00:41 10° E
Cosmos 1515 Rocket 4.0 06:57:07 10° S 07:01:28 68° E 07:05:53 10° NNE
CORIOLIS 4.2 07:00:34 10° N 07:05:58 71° WNW 07:11:21 10° SSW
Cosmos 1092 Rocket 4.1 06:59:51 10° N 07:06:11 84° W 07:12:24 10° S
